| time (UTC) | temp F | wind direction | speed knots | gust knots | rain 1hr in | rain 24hr in | rain mn in | humidity % | barometer mb |
| 20260906144528 | 64 | 320 | 0.0 | 0.0 | 0.00 | 0.02 | 0.02 | 89 | 1011.5 |
| 20260906143027 | 64 | 320 | 0.0 | 0.0 | 0.00 | 0.02 | 0.02 | 89 | 1011.4 |
| 20260906141525 | 63 | 320 | 0.0 | 0.0 | 0.00 | 0.02 | 0.02 | 88 | 1011.2 |
| 20260906140024 | 63 | 320 | 0.0 | 0.0 | 0.01 | 0.02 | 0.02 | 87 | 1011.0 |
| 20260906134523 | 63 | 320 | 0.0 | 0.0 | 0.01 | 0.02 | 0.02 | 87 | 1010.9 |
| 20260906133027 | 63 | 320 | 0.0 | 0.0 | 0.01 | 0.02 | 0.02 | 86 | 1010.8 |
| 20260906131520 | 62 | 320 | 0.0 | 0.0 | 0.01 | 0.02 | 0.02 | 86 | 1010.7 |
| 20260906130021 | 62 | 320 | 0.0 | 0.0 | 0.00 | 0.01 | 0.01 | 85 | 1010.6 |
| 20260906124517 | 62 | 320 | 0.0 | 0.0 | 0.00 | 0.01 | 0.01 | 84 | 1010.6 |
| 20260906123023 | 62 | 320 | 0.0 | 0.0 | 0.00 | 0.01 | 0.01 | 84 | 1010.6 |
| 20260906121513 | 62 | 320 | 0.0 | 0.0 | 0.00 | 0.01 | 0.01 | 83 | 1010.7 |
| 20260906120010 | 63 | 320 | 0.0 | 0.0 | 0.00 | 0.01 | 0.01 | 83 | 1010.8 |
| 20260906114524 | 63 | 320 | 0.0 | 0.0 | 0.00 | 0.01 | 0.01 | 82 | 1010.8 |
| 20260906113006 | 63 | 320 | 0.0 | 0.0 | 0.01 | 0.01 | 0.01 | 81 | 1011.0 |
| 20260906111503 | 64 | 320 | 0.0 | 0.0 | 0.01 | 0.01 | 0.01 | 80 | 1010.9 |
| 20260906110004 | 64 | 320 | 0.0 | 0.0 | 0.01 | 0.01 | 0.01 | 80 | 1011.1 |
| 20260906104600 | 64 | 320 | 0.0 | 0.0 | 0.01 | 0.01 | 0.01 | 79 | 1011.2 |
| 20260906103100 | 65 | 320 | 0.0 | 0.0 | 0.00 | 0.00 | 0.00 | 79 | 1011.1 |
| 20260906101603 | 64 | 320 | 0.0 | 0.0 | 0.00 | 0.00 | 0.00 | 77 | 1011.0 |
| 20260906100058 | 64 | 320 | 0.0 | 0.0 | 0.00 | 0.00 | 0.00 | 77 | 1011.0 |
| 20260906094557 | 64 | 320 | 0.0 | 0.0 | 0.00 | 0.00 | 0.00 | 77 | 1011.0 |
| 20260906093055 | 64 | 320 | 0.0 | 0.0 | 0.00 | 0.00 | 0.00 | 76 | 1011.1 |
| 20260906091555 | 64 | 320 | 0.0 | 0.0 | 0.00 | 0.00 | 0.00 | 76 | 1011.3 |
| 20260906090053 | 64 | 320 | 0.0 | 0.0 | 0.00 | 0.00 | 0.00 | 76 | 1011.4 |
| 20260906084550 | 65 | 320 | 0.0 | 0.0 | 0.00 | 0.00 | 0.00 | 75 | 1011.6 |
| 20260906083048 | 65 | 320 | 0.0 | 0.0 | 0.00 | 0.00 | 0.00 | 74 | 1011.7 |
| 20260906081547 | 66 | 320 | 0.0 | 0.0 | 0.00 | 0.00 | 0.00 | 74 | 1011.8 |
| 20260906080043 | 66 | 320 | 0.0 | 0.0 | 0.00 | 0.00 | 0.00 | 72 | 1011.9 |
| 20260906074544 | 67 | 320 | 0.0 | 0.0 | 0.00 | 0.00 | 0.00 | 68 | 1012.3 |
| 20260906073043 | 67 | 320 | 0.0 | 0.0 | 0.00 | 0.00 | 0.00 | 66 | 1012.4 |
| 20260906071534 | 67 | 320 | 0.0 | 0.0 | 0.00 | 0.00 | 0.00 | 64 | 1012.6 |
| 20260906070031 | 67 | 318 | 0.0 | 0.0 | 0.00 | 0.00 | 0.00 | 60 | 1012.6 |
| 20260906064531 | 67 | 318 | 0.0 | 0.0 | 0.00 | 0.00 | 0.00 | 59 | 1012.5 |
| 20260906063031 | 67 | 318 | 0.0 | 0.0 | 0.00 | 0.00 | 0.00 | 58 | 1012.6 |
| 20260906061530 | 67 | 318 | 0.0 | 0.0 | 0.00 | 0.00 | 0.00 | 56 | 1012.6 |
| 20260906060034 | 67 | 318 | 0.0 | 0.0 | 0.00 | 0.00 | 0.00 | 56 | 1012.6 |
| 20260906054528 | 67 | 318 | 0.0 | 0.0 | 0.00 | 0.00 | 0.00 | 55 | 1012.6 |
| 20260906053031 | 68 | 318 | 0.0 | 0.0 | 0.00 | 0.00 | 0.00 | 54 | 1012.8 |
| 20260906051526 | 68 | 318 | 0.0 | 0.0 | 0.00 | 0.00 | 0.00 | 54 | 1012.7 |
| 20260906050025 | 69 | 318 | 0.0 | 0.0 | 0.00 | 0.00 | 0.00 | 53 | 1012.7 |
| 20260906044525 | 69 | 318 | 0.0 | 0.0 | 0.00 | 0.00 | 0.00 | 52 | 1012.7 |
| 20260906043027 | 70 | 318 | 0.0 | 0.0 | 0.00 | 0.00 | 0.00 | 52 | 1012.7 |
| 20260906041529 | 70 | 318 | 0.0 | 0.0 | 0.00 | 0.00 | 0.00 | 51 | 1012.6 |
| 20260906040032 | 71 | 318 | 0.0 | 0.0 | 0.00 | 0.00 | 0.00 | 50 | 1012.5 |
| 20260906034528 | 71 | 314 | 0.0 | 0.0 | 0.00 | 0.00 | 0.00 | 49 | 1012.6 |
| 20260906033021 | 72 | 310 | 0.0 | 0.0 | 0.00 | 0.00 | 0.00 | 49 | 1012.4 |
| 20260906031534 | 73 | 330 | 0.0 | 0.9 | 0.00 | 0.00 | 0.00 | 47 | 1012.3 |
| 20260906030021 | 73 | 315 | 0.0 | 4.3 | 0.00 | 0.00 | 0.00 | 46 | 1012.2 |
| 20260906024620 | 74 | 294 | 0.0 | 2.6 | 0.00 | 0.00 | 0.00 | 45 | 1012.1 |
| 20260906023019 | 75 | 303 | 0.0 | 0.9 | 0.00 | 0.00 | 0.00 | 44 | 1012.0 |
| 20260906021521 | 76 | 304 | 0.0 | 5.2 | 0.00 | 0.00 | 0.00 | 43 | 1012.0 |
| 20260906020018 | 76 | 295 | 0.0 | 0.0 | 0.00 | 0.00 | 0.00 | 41 | 1012.1 |
| 20260906014523 | 77 | 290 | 0.0 | 0.0 | 0.00 | 0.00 | 0.00 | 40 | 1012.1 |
| 20260906013017 | 78 | 305 | 0.0 | 0.9 | 0.00 | 0.00 | 0.00 | 39 | 1012.2 |
| 20260906011516 | 79 | 313 | 0.0 | 7.8 | 0.00 | 0.00 | 0.00 | 38 | 1012.2 |
| 20260906010015 | 80 | 316 | 0.0 | 8.7 | 0.00 | 0.00 | 0.00 | 38 | 1012.2 |
| 20260906004514 | 81 | 296 | 0.0 | 10.4 | 0.00 | 0.00 | 0.00 | 39 | 1012.1 |
| 20260906003014 | 81 | 205 | 0.0 | 2.6 | 0.00 | 0.00 | 0.00 | 40 | 1012.2 |
| 20260906001512 | 81 | 290 | 0.0 | 7.0 | 0.00 | 0.00 | 0.00 | 38 | 1012.1 |
| 20260906000011 | 82 | 216 | 0.0 | 7.0 | 0.00 | 0.00 | 0.00 | 37 | 1012.2 |
| 20260905234509 | 83 | 33 | 0.0 | 5.2 | 0.00 | 0.00 | 0.00 | 35 | 1012.1 |
| 20260905233008 | 83 | 304 | 0.0 | 0.9 | 0.00 | 0.00 | 0.00 | 35 | 1012.4 |
| 20260905231508 | 83 | 223 | 0.0 | 4.3 | 0.00 | 0.00 | 0.00 | 34 | 1012.4 |
| 20260905230007 | 84 | 312 | 0.0 | 8.7 | 0.00 | 0.00 | 0.00 | 33 | 1012.3 |
| 20260905224506 | 84 | 285 | 0.0 | 3.5 | 0.00 | 0.00 | 0.00 | 32 | 1012.4 |
| 20260905223005 | 85 | 312 | 1.7 | 7.0 | 0.00 | 0.00 | 0.00 | 31 | 1012.4 |
| 20260905221503 | 85 | 295 | 2.6 | 13.0 | 0.00 | 0.00 | 0.00 | 32 | 1012.4 |
| 20260905220002 | 84 | 211 | 4.3 | 12.2 | 0.00 | 0.00 | 0.00 | 33 | 1012.7 |
| 20260905214501 | 83 | 311 | 0.9 | 9.6 | 0.00 | 0.00 | 0.00 | 33 | 1012.7 |
| 20260905213104 | 83 | 289 | 0.0 | 7.0 | 0.00 | 0.00 | 0.00 | 33 | 1012.9 |
| 20260905211559 | 83 | 342 | 0.0 | 7.8 | 0.00 | 0.00 | 0.00 | 32 | 1013.1 |
| 20260905210107 | 83 | 261 | 0.0 | 9.6 | 0.00 | 0.00 | 0.00 | 31 | 1013.0 |
| 20260905204556 | 84 | 306 | 0.0 | 7.8 | 0.00 | 0.00 | 0.00 | 30 | 1013.1 |
| 20260905203058 | 85 | 291 | 0.0 | 5.2 | 0.00 | 0.00 | 0.00 | 29 | 1013.2 |
| 20260905201553 | 87 | 270 | 0.0 | 8.7 | 0.00 | 0.00 | 0.00 | 28 | 1013.3 |
| 20260905200107 | 87 | 198 | 0.0 | 3.5 | 0.00 | 0.00 | 0.00 | 28 | 1013.3 |
| 20260905194549 | 86 | 192 | 0.0 | 0.0 | 0.00 | 0.00 | 0.00 | 27 | 1013.3 |
| 20260905193046 | 85 | 282 | 2.6 | 11.3 | 0.00 | 0.00 | 0.00 | 26 | 1013.6 |
| 20260905191546 | 85 | 304 | 1.7 | 10.4 | 0.00 | 0.00 | 0.00 | 25 | 1013.9 |
| 20260905190051 | 86 | 321 | 2.6 | 10.4 | 0.00 | 0.00 | 0.00 | 24 | 1013.9 |
| 20260905184541 | 85 | 309 | 0.0 | 0.0 | 0.00 | 0.00 | 0.00 | 29 | 1013.9 |
| 20260905183038 | 84 | 220 | 0.0 | 6.1 | 0.00 | 0.00 | 0.00 | 31 | 1014.1 |
| 20260905181536 | 84 | 238 | 0.0 | 1.7 | 0.00 | 0.00 | 0.00 | 33 | 1014.1 |
| 20260905180047 | 83 | 271 | 0.0 | 3.5 | 0.00 | 0.00 | 0.00 | 33 | 1014.2 |
| 20260905174529 | 82 | 234 | 0.0 | 2.6 | 0.00 | 0.00 | 0.00 | 32 | 1014.1 |
| 20260905173027 | 81 | 318 | 0.9 | 4.3 | 0.00 | 0.00 | 0.00 | 33 | 1014.1 |
| 20260905171530 | 80 | 230 | 0.0 | 6.1 | 0.00 | 0.00 | 0.00 | 32 | 1013.8 |
| 20260905170024 | 80 | 239 | 0.0 | 3.5 | 0.00 | 0.00 | 0.00 | 34 | 1013.7 |
| 20260905164523 | 80 | 247 | 0.0 | 6.1 | 0.00 | 0.00 | 0.00 | 32 | 1013.6 |
| 20260905163019 | 79 | 228 | 0.0 | 5.2 | 0.00 | 0.00 | 0.00 | 31 | 1013.6 |
| 20260905161523 | 76 | 166 | 0.0 | 1.7 | 0.00 | 0.00 | 0.00 | 30 | 1013.6 |
| 20260905160010 | 73 | 158 | 0.0 | 0.0 | 0.00 | 0.00 | 0.00 | 31 | 1013.6 |
| 20260905154506 | 68 | 150 | 0.0 | 2.6 | 0.00 | 0.00 | 0.00 | 36 | 1013.7 |
| 20260905153002 | 65 | 160 | 0.0 | 0.0 | 0.00 | 0.00 | 0.00 | 41 | 1013.8 |
| 20260905151558 | 62 | 144 | 0.0 | 0.0 | 0.00 | 0.00 | 0.00 | 44 | 1013.9 |
| 20260905150053 | 60 | 163 | 0.0 | 0.0 | 0.00 | 0.00 | 0.00 | 46 | 1013.6 |